| time (UTC) | temp F | wind direction | speed knots | gust knots | rain 1hr in | rain 24hr in | rain mn in | humidity % | barometer mb |
| 20260504183013 | 63 | 306 | 2.6 | 13.0 | 0.00 | 0.00 | 0.00 | 34 | 1007.9 |
| 20260504181508 | 61 | 279 | 3.5 | 10.4 | 0.00 | 0.00 | 0.00 | 35 | 1008.2 |
| 20260504180004 | 59 | 221 | 2.6 | 8.7 | 0.00 | 0.00 | 0.00 | 37 | 1008.1 |
| 20260504174602 | 59 | 32 | 4.3 | 8.7 | 0.00 | 0.00 | 0.00 | 38 | 1008.4 |
| 20260504173027 | 56 | 20 | 0.9 | 3.5 | 0.00 | 0.00 | 0.00 | 42 | 1008.7 |
| 20260504171534 | 54 | 228 | 0.0 | 2.6 | 0.00 | 0.00 | 0.00 | 46 | 1008.8 |
| 20260504160126 | 54 | 330 | 0.9 | 12.2 | 0.00 | 0.00 | 0.00 | 41 | 1008.8 |
| 20260504081511 | 40 | 110 | 0.0 | 2.6 | 0.00 | 0.01 | 0.00 | 59 | 1010.5 |
| 20260504050011 | 32 | 113 | 0.0 | 0.0 | 0.00 | 0.01 | 0.00 | 63 | 1010.3 |
| 20260504044518 | 31 | 101 | 0.0 | 0.0 | 0.00 | 0.01 | 0.00 | 63 | 1010.6 |
| 20260504043009 | 30 | 80 | 0.0 | 0.0 | 0.00 | 0.01 | 0.00 | 65 | 1010.5 |
| 20260504041539 | 30 | 95 | 0.0 | 0.0 | 0.00 | 0.01 | 0.00 | 66 | 1010.6 |
| 20260504040037 | 29 | 95 | 0.0 | 0.0 | 0.00 | 0.01 | 0.00 | 66 | 1010.5 |
| 20260504034534 | 29 | 95 | 0.0 | 0.0 | 0.00 | 0.01 | 0.00 | 66 | 1010.4 |
| 20260504033037 | 30 | 95 | 0.0 | 0.0 | 0.00 | 0.01 | 0.00 | 66 | 1010.4 |
| 20260504031535 | 30 | 95 | 0.0 | 0.0 | 0.00 | 0.02 | 0.00 | 66 | 1010.5 |
| 20260504030033 | 30 | 95 | 0.0 | 0.9 | 0.00 | 0.02 | 0.00 | 66 | 1010.4 |
| 20260504024628 | 30 | 95 | 0.0 | 0.9 | 0.00 | 0.02 | 0.00 | 66 | 1010.5 |
| 20260504023056 | 31 | 95 | 0.0 | 0.9 | 0.00 | 0.02 | 0.00 | 67 | 1010.5 |
| 20260504021555 | 31 | 90 | 0.0 | 0.0 | 0.00 | 0.02 | 0.00 | 65 | 1010.6 |
| 20260504020050 | 32 | 90 | 0.0 | 0.0 | 0.00 | 0.02 | 0.00 | 65 | 1010.6 |
| 20260504014548 | 33 | 90 | 0.0 | 0.0 | 0.00 | 0.02 | 0.00 | 64 | 1010.6 |
| 20260504013052 | 33 | 20 | 0.0 | 0.9 | 0.00 | 0.02 | 0.00 | 63 | 1010.4 |
| 20260504011543 | 34 | 306 | 0.0 | 0.0 | 0.00 | 0.04 | 0.02 | 63 | 1010.4 |
| 20260504010041 | 35 | 306 | 0.0 | 0.0 | 0.00 | 0.04 | 0.02 | 60 | 1010.3 |
| 20260504004536 | 37 | 306 | 0.0 | 0.0 | 0.00 | 0.04 | 0.02 | 58 | 1010.1 |
| 20260504003037 | 39 | 306 | 0.0 | 0.0 | 0.00 | 0.04 | 0.02 | 49 | 1010.1 |
| 20260504001539 | 41 | 306 | 0.0 | 1.7 | 0.00 | 0.17 | 0.02 | 44 | 1009.9 |
| 20260504000034 | 43 | 283 | 0.9 | 6.1 | 0.00 | 0.17 | 0.02 | 42 | 1009.8 |
| 20260503234532 | 44 | 300 | 2.6 | 8.7 | 0.00 | 0.17 | 0.02 | 38 | 1009.6 |
| 20260503233031 | 45 | 309 | 0.9 | 8.7 | 0.00 | 0.17 | 0.02 | 37 | 1009.6 |
| 20260503231531 | 45 | 345 | 1.7 | 8.7 | 0.00 | 0.17 | 0.02 | 38 | 1009.6 |
| 20260503230028 | 46 | 302 | 0.9 | 9.6 | 0.00 | 0.17 | 0.02 | 38 | 1009.4 |
| 20260503224527 | 45 | 288 | 1.7 | 9.6 | 0.00 | 0.17 | 0.02 | 37 | 1009.3 |
| 20260503223027 | 45 | 267 | 1.7 | 9.6 | 0.00 | 0.17 | 0.02 | 37 | 1009.4 |
| 20260503221525 | 45 | 312 | 2.6 | 9.6 | 0.00 | 0.17 | 0.02 | 36 | 1009.2 |
| 20260503220107 | 45 | 70 | 4.3 | 13.0 | 0.00 | 0.17 | 0.02 | 35 | 1009.1 |
| 20260503214556 | 46 | 283 | 3.5 | 7.8 | 0.00 | 0.17 | 0.02 | 37 | 1009.1 |
| 20260503213053 | 45 | 12 | 2.6 | 10.4 | 0.00 | 0.17 | 0.02 | 39 | 1009.3 |
| 20260503211552 | 45 | 297 | 2.6 | 13.9 | 0.00 | 0.17 | 0.02 | 37 | 1009.2 |
| 20260503210051 | 45 | 290 | 5.2 | 13.9 | 0.00 | 0.17 | 0.02 | 37 | 1009.1 |
| 20260503204550 | 45 | 309 | 1.7 | 9.6 | 0.00 | 0.17 | 0.02 | 39 | 1009.0 |
| 20260503203053 | 45 | 291 | 3.5 | 10.4 | 0.00 | 0.17 | 0.02 | 38 | 1009.0 |
| 20260503201547 | 45 | 288 | 2.6 | 11.3 | 0.00 | 0.17 | 0.02 | 38 | 1008.8 |
| 20260503200046 | 45 | 289 | 1.7 | 8.7 | 0.00 | 0.17 | 0.02 | 38 | 1008.8 |
| 20260503194645 | 45 | 282 | 2.6 | 8.7 | 0.00 | 0.17 | 0.02 | 39 | 1008.9 |
| 20260503193045 | 45 | 292 | 5.2 | 11.3 | 0.00 | 0.17 | 0.02 | 36 | 1009.0 |
| 20260503191642 | 45 | 276 | 6.1 | 10.4 | 0.00 | 0.21 | 0.02 | 38 | 1009.0 |
| 20260503190044 | 44 | 296 | 4.3 | 11.3 | 0.00 | 0.21 | 0.02 | 39 | 1009.0 |
| 20260503184542 | 46 | 15 | 3.5 | 9.6 | 0.00 | 0.21 | 0.02 | 37 | 1009.0 |